Location: Sternwarte_Laufen
(47.9344°N, 12.9346°E)
Time: 01:16:57
(UTC+02:00)

ISS - Pass Details

Date: 20 July 2018
Orbit: 402 x 408 km, 51.6° (Epoch: 18 July)

Event Time Altitude Azimuth Distance (km) Brightness Sun altitude
Rises 23:44:59 0° 256° (WSW) 2,318 0.1 -18.6°
Reaches altitude 10° 23:47:04 10° 260° (W) 1,461 -0.9 -18.8°
Maximum altitude 23:50:19 63° 342° (NNW) 458 -3.4 -19.0°
Drops below altitude 10° 23:53:36 10° 65° (ENE) 1,469 -1.0 -19.2°
Sets 23:55:42 0° 69° (ENE) 2,332 0.1 -19.3°
